www.pogodaiklimat.ru

ПОГОДА в Чебойгане, MI

  • Прогноз погоды в Чебойгане
  • Монитор погоды в Чебойгане
  • Климат в Чебойгане

АРХИВ ПОГОДЫ в Чебойгане

Время (UTC), дата Ветер
(напр.,м/с)
 
Видим.   Явления Облачность Т
(С)
Тd
(С)
f
(%)
Тe
(С)
Тes
(С)
Комфортность

P
(гПа)

Po
(гПа)
Тmin
(С)
Tmax
(С)
R
(мм)
SD
(см)
13:15 21.03 З  1 км  дымка  10/10 60 м  +1.0  +0.7  98  -5  -5      990.2         
13:35 21.03 СЗ  2 км  дымка  10/10 60 м  +1.0  +0.7  98  -4  -4      990.2         
13:55 21.03 З  2 км  дымка  10/10 60 м  +1.1  +1.0  99  -4  -4      990.2         
13:56 21.03 З  2 км  дымка  10/10 60 м  +1.1  +1.0  99  -4  -4      990.2         
14:15 21.03 З  3 км  дымка  10/10 60 м  +1.4  +1.1  98  -3  -3      990.2         
14:35 21.03 ЮЗ  8 км  дымка  10/10 120 м  +1.4  +1.0  97  -3  -3      989.5         
14:55 21.03 З  11 км    10/10 120 м  +2.3  +1.2  92  -2  -2      989.2         
15:15 21.03 З  16 км    10/10 180 м  +2.7  +1.1  89  -1  -1      989.2         
15:16 21.03 З  16 км    10/10 180 м  +2.7  +1.1  89  -1  -1      989.2         
15:35 21.03 З  16 км    10/10 270 м  +2.8  +1.0  88  -1  -1      989.2         
15:36 21.03 З  16 км    10/10 270 м  +2.8  +1.0  88  -1  -1      989.2         
15:55 21.03 ЮЗ  16 км    10/10 270 м  +3.0  +0.9  86  -1  -1      988.9         
16:15 21.03 ЮЗ  16 км    10/10 360 м  +3.0  +0.7  85  -1  -1      988.6         
16:35 21.03 З  16 км    10/10 360 м  +3.3  +0.6  82  -2  -2      988.2         
16:36 21.03 З  16 км    10/10 360 м  +3.3  +0.6  82  -1  -1      988.2         
16:55 21.03 З  16 км    10/10 420 м  +3.3  +0.5  82  -1  -1      987.9  +0.7  +3.4     
16:56 21.03 ЮЗ  16 км    10/10 420 м  +3.3  +0.5  82  -1  -1      987.9  +0.7  +3.4     
17:15 21.03 ЮЗ  16 км    10/10 480 м  +3.3  +0.3  81  -1  -1      987.6         
17:35 21.03 З  16 км    10/10 480 м  +3.4  +0.2  80  -1  -1      987.6         
17:55 21.03 З  16 км    10/10 540 м  +3.3  0.0  79  -1  -1      986.9         
17:56 21.03 З  16 км    10/10 600 м  +3.2  0.0  80  -1  -1      986.9         
18:15 21.03 ЮЗ  16 км    10/10 600 м  +3.3  0.0  79  -3  -3      986.2         
18:16 21.03 ЮЗ  16 км    10/10 600 м  +3.3  0.0  79  -2  -2      986.2         
18:35 21.03 ЮЗ  16 км    10/10 600 м  +3.1  0.0  80  -2  -2      985.9         
18:55 21.03 ЮЗ  6
{8} 
16 км    10/10 600 м  +3.3  -0.5  76  -3  -3      985.9         
19:15 21.03 З  6
{9} 
16 км    10/10 660 м  +3.2  -0.9  74  -3  -3      985.9         
19:16 21.03 ЮЗ  6
{9} 
16 км    10/10 660 м  +3.2  -0.9  74  -3  -3      985.9         
19:35 21.03 ЮЗ  6
{10} 
16 км    10/10 660 м  +3.0  -1.0  75  -3  -3      985.9         
19:36 21.03 ЮЗ  6
{10} 
16 км    10/10 660 м  +3.0  -0.9  76  -3  -3      985.9         
19:55 21.03 З  4
{8} 
16 км    10/10 600 м  +2.7  -0.8  78  -3  -3      985.9         
20:15 21.03 З  5
{8} 
16 км    10/10 540 м  +2.3  -0.6  81  -4  -4      985.6         
20:35 21.03 ЮЗ  16 км    10/10 540 м  +2.1  -0.5  83  -4  -4      985.6         
20:36 21.03 ЮЗ  16 км    10/10 540 м  +2.1  -0.5  83  -3  -3      985.6         
20:55 21.03 З  16 км    10/10 480 м  +2.1  -0.5  83  -3  -3      985.9         
20:56 21.03 З  16 км    10/10 480 м  +2.1  -0.5  83  -3  -3      985.9         
21:15 21.03 ЮЗ  4
{7} 
16 км    10/10 480 м  +2.1  -0.5  83  -3  -3      985.9         
21:35 21.03 ЮЗ  16 км    10/10 540 м  +2.1  -0.5  83  -3  -3      985.9         
21:55 21.03 ЮЗ  16 км    10/10 540 м  +2.0  -0.5  83  -3  -3      985.6         
22:15 21.03 ЮЗ  16 км    10/10 540 м  +2.0  -0.6  83  -4  -4      985.6         
22:16 21.03 ЮЗ  16 км    10/10 540 м  +2.0  -0.6  83  -3  -3      985.6         
22:35 21.03 ЮЗ  16 км    10/10 1800 м  +2.0  -0.7  82  -3  -3      985.2         
22:55 21.03 ЮЗ  16 км    10/10 1800 м  +2.0  -0.7  82  -4  -4      984.9  +2.0  +3.5     
23:15 21.03 ЮЗ  16 км    8/5 1800 м
[средняя] 
+1.7  -0.7  84  -3  -3      984.9         
23:16 21.03 ЮЗ  16 км    8/5 1800 м
[средняя] 
+1.7  -0.7  84  -4  -4      984.9         
23:35 21.03 ЮЗ  16 км    8/5 1800 м
[средняя] 
+1.6  -0.7  85  -3  -3      984.9         
23:36 21.03 ЮЗ  16 км    8/8 1800 м
[средняя] 
+1.6  -0.7  85  -3  -3      984.9         
23:55 21.03 ЮЗ  16 км    10/10 1800 м  +1.7  -0.7  84  -3  -3      984.9         
00:15 22.03 ЮЗ  16 км    10/8 1500 м
[средняя] 
+1.7  -0.7  84  -3  -3      984.9         

 

Местоположение метеостанции Cheboygan County Airport: широта 45.6536 долгота -84.5192 высота над уровнем моря 195 м.

В архиве по умолчанию представлена погода в Чебойгане за последние 1-2 суток. Обновление информации о фактической погоде в базе происходит ежечасно! Архивные данные за месяц целиком и за предыдущие месяцы Вы можете получить, выбрав интересующий диапазон дат из раскрывающегося списка и нажав кнопку "Ввод!".

Внимание! Архив погоды МЕТАР в базе сайта хранится не более 60 дней. Нет смысла пытаться выбрать более раннюю дату.

Внимание! Время в таблицах - всемирное. Для получения местного времени необходимо прибавить поправку, которая в Чебойгане равна -5 ч.

Ветер - указаны скорость ветра в м/с и направление, откуда дует ветер: С - северный, СВ - северо-восточный, В - восточный, ЮВ - юго-восточный, Ю - южный, ЮЗ - юго-западный, З - западный, СЗ - северо-западный.
Видимость - горизонтальная дальность видимости в метрах или километрах. При видимости от 1 до 10 км при отсутствии осадков обычно наблюдается дымка, при ухудшении видимости до 1 км и менее - туман. В сухую погоду видимость может ухудшаться дымом, пылью или мглою.
Атмосферные явления - указаны явления, наблюдавшиеся в указанный момент времени.
Облачность - указаны через наклонную черту верхняя и нижняя облачность в баллах и высота нижней границы облаков в метрах. Внимание: облачность, как и прочие метеорологические величины в США измеряются автоматическими метеостанциями. Указанные значения в баллах носят условный характер и показывают процент времени, в течение которого, в среднем, лазерный луч высотомера отражался от облаков обратно.
T - Температура воздуха - температура, измеренная на высоте 2 м над землей.
Td - Температура точки росы - температура, при понижении до которой содержащийся в воздухе водяной пар достигнет насыщения.
f - Относительная влажность воздуха - влажноcть воздуха, измеренная на высоте 2 м над землей.
Te - Эффективная температура - температура, которую ощущает одетый по сезону человек в тени. Характеристика душности погоды. При расчете учитывается влияние влажности воздуха и скорости ветра на теплоощущения человека.
Tes - Эффективная температура на солнце - температура, которую ощущает человек, с поправкой на солнечный нагрев. Характеристика знойности погоды. Зависит от высоты солнца над горизонтом, облачности и скорости ветра. Ночью, в пасмурную погоду, а также при ветре 12 м/с и более поправка равна нулю.
P - Атмосферное давление - приведенное к уровню моря атмосферное давление.
Po - Атмосферное давление - измеренное на уровне метеостанции атмосферное давление.
Tmin - Минимальная температура - минимум температуры воздуха на высоте 2 м над землей.
Tmax - Максимальная температура - максимум температуры воздуха на высоте 2 м над землей.
R - Количество осадков - Количество выпавших осадков за 3 или 6 часов, мм.
SD - Снежный покров - Высота снежного покрова, см.